Flag for Germany Weather past 2 weeks in Steinfurt, North Rhine-Westphalia, Germany

Now
64 °F

Scattered clouds.


Feels Like: 64 °F
Forecast: 59 / 68 °F
Wind: 7 mph from East

Location: Rheine-Bentlage

Current Time: Aug 28, 2014 at 12:02:10 PM

Latest Report: Aug 28, 2014 at 11:20 AM


Visibility: N/A

Pressure: 30.01 "Hg

Humidity: 68%

Dew point: 54 °F

Location of SteinfurtLocation

Historic Weather in Steinfurt — Graph

°F

Steinfurt temperature yesterday

Maximum temperature yesterday: 70 °F (at 3:20 PM)
Minimum temperature yesterday: 43 °F (at 5:20 AM)
Average temperature yesterday: 57 °F

Past Weeks' High & Low Weather Summary

 TemperatureHumidityPressure
High70 °F (Aug 13, 4:20 PM)100% (Aug 15, 1:20 AM)30.07 "Hg (Aug 15, 1:20 AM)
Low43 °F (Aug 25, 5:20 AM)43% (Aug 27, 6:20 PM)29.59 "Hg (Aug 18, 6:20 AM)
Average56 °F83%29.88 "Hg
* Reported Aug 13 10:20 AM — Aug 28 10:20 AM, Steinfurt, Weather by CustomWeather, © 2014

Note: Actual official high and low records may vary slightly from our data, if they occured in-between our weather recording intervals... More about our weather records

Advertising

Steinfurt weather history for previous 24 hours

 ConditionsComfort  
Time TempWeatherWind HumidityBarometerVisibility
10:20 AM
Aug 28
61 °FScattered clouds.7 mph77%30.01 "HgN/A
9:20 AM57 °FScattered clouds.7 mph77%30.01 "HgN/A
8:20 AM55 °FScattered clouds.6 mph82%30.01 "HgN/A
7:20 AM52 °FPassing clouds.7 mph88%30.01 "HgN/A
6:20 AM52 °FPassing clouds.5 mph88%30.01 "HgN/A
5:20 AM50 °FPassing clouds.3 mph94%30.01 "HgN/A
4:20 AM50 °FCool.3 mph94%30.01 "Hg1 mi
3:20 AM50 °FCool.3 mph94%30.01 "Hg0 mi
2:20 AM50 °FCool.1 mph94%30.04 "Hg0 mi
1:20 AM50 °FCool.No wind94%30.04 "Hg0 mi
12:20 AM50 °FCool.No wind100%30.04 "Hg0 mi
11:20 PM
Aug 27
52 °FCool.1 mph94%30.04 "Hg0 mi
10:20 PM54 °FCool.No wind94%30.04 "Hg2 mi
9:20 PM55 °FCool.No wind94%30.04 "Hg3 mi
8:20 PM61 °FCool.No wind77%30.04 "Hg4 mi
7:20 PM68 °FMild.1 mph53%30.01 "Hg4 mi
6:20 PM70 °FMild.1 mph43%30.01 "Hg4 mi
5:20 PM68 °FMild.2 mph53%30.01 "Hg4 mi
4:20 PM70 °FMild.3 mph46%30.01 "Hg4 mi
3:20 PM70 °FPassing clouds.3 mph46%30.04 "HgN/A
2:20 PM68 °FPassing clouds.3 mph49%30.04 "HgN/A
1:20 PM68 °FPassing clouds.1 mph49%30.04 "HgN/A
12:20 PM66 °FPassing clouds.3 mph56%30.04 "HgN/A
Weather by CustomWeather, © 2014

See weather overviewHow to use our weather pages